When you browse on this site, cookies collect data to enhance your experience and personalize the content and advertising you see.
Visit our Privacy Policy to learn more. By continuing to use the site, you agree to this use of cookies and data.
EN

Hourly Weather La Palma

Today, 4 July, Saturday

Time Temperature Precipitation Wind Pressure Humidity
00:00 +26°C° 0.1 mm 1 mps 757 mmHg 94%
01:00 +24°C° 0 mm 0 mps 757 mmHg 96%
02:00 +24°C° 1.4 mm 0 mps 756 mmHg 97%
03:00 +24°C° 1.4 mm 0 mps 756 mmHg 97%
04:00 +24°C° 1.4 mm 0 mps 756 mmHg 98%
05:00 +26°C° 0.4 mm 1 mps 756 mmHg 98%
06:00 +26°C° 0.4 mm 1 mps 756 mmHg 98%
07:00 +26°C° 0.4 mm 1 mps 757 mmHg 97%
08:00 +28°C° 0 mm 1 mps 757 mmHg 90%
09:00 +30°C° 0 mm 1 mps 757 mmHg 82%
10:00 +31°C° 0 mm 1 mps 757 mmHg 74%
11:00 +32°C° 0.2 mm 1 mps 757 mmHg 73%
12:00 +32°C° 0.2 mm 2 mps 757 mmHg 71%
13:00 +34°C° 0.2 mm 3 mps 757 mmHg 69%
14:00 +33°C° 1.5 mm 3 mps 756 mmHg 75%
15:00 +32°C° 1.5 mm 4 mps 756 mmHg 80%
16:00 +30°C° 1.5 mm 4 mps 755 mmHg 85%
17:00 +29°C° 1.2 mm 4 mps 755 mmHg 88%
18:00 +28°C° 1.2 mm 3 mps 756 mmHg 92%
19:00 +27°C° 1.2 mm 3 mps 756 mmHg 95%
20:00 +26°C° 0.3 mm 3 mps 757 mmHg 95%
21:00 +26°C° 0.3 mm 2 mps 757 mmHg 95%
22:00 +26°C° 0.3 mm 2 mps 758 mmHg 96%
23:00 +26°C° 0.2 mm 2 mps 758 mmHg 96%

Tomorrow, 5 July, Sunday

Time Temperature Precipitation Wind Pressure Humidity
00:00 +26°C° 0.2 mm 1 mps 758 mmHg 96%
01:00 +26°C° 0.2 mm 1 mps 758 mmHg 97%
02:00 +26°C° 0.3 mm 1 mps 757 mmHg 97%
03:00 +25°C° 0.3 mm 1 mps 757 mmHg 97%
04:00 +25°C° 0.3 mm 1 mps 756 mmHg 97%
05:00 +25°C° 0.5 mm 1 mps 757 mmHg 97%
06:00 +26°C° 0.5 mm 1 mps 757 mmHg 97%
07:00 +26°C° 0.5 mm 1 mps 758 mmHg 97%
08:00 +26°C° 0.1 mm 1 mps 758 mmHg 95%
09:00 +27°C° 0.1 mm 1 mps 758 mmHg 93%
10:00 +27°C° 0.1 mm 1 mps 759 mmHg 91%
11:00 +29°C° 0.2 mm 1 mps 758 mmHg 84%
12:00 +30°C° 0.2 mm 2 mps 758 mmHg 77%
13:00 +32°C° 0.2 mm 2 mps 757 mmHg 70%
14:00 +30°C° 1.5 mm 3 mps 757 mmHg 77%
15:00 +29°C° 1.5 mm 3 mps 756 mmHg 84%
16:00 +28°C° 1.5 mm 3 mps 756 mmHg 91%
17:00 +28°C° 0.8 mm 3 mps 756 mmHg 92%
18:00 +27°C° 0.8 mm 3 mps 757 mmHg 94%
19:00 +26°C° 0.8 mm 2 mps 757 mmHg 95%
20:00 +26°C° 0.5 mm 2 mps 758 mmHg 95%
21:00 +26°C° 0.5 mm 2 mps 758 mmHg 96%
22:00 +26°C° 0.5 mm 1 mps 758 mmHg 97%
23:00 +26°C° 0 mm 1 mps 758 mmHg 97%

Day after tomorrow, 6 July, Monday

Time Temperature Precipitation Wind Pressure Humidity
00:00 +26°C° 0 mm 1 mps 758 mmHg 97%
01:00 +25°C° 0 mm 1 mps 758 mmHg 98%
02:00 +23°C° 0.1 mm 0 mps 758 mmHg 98%
03:00 +23°C° 0.1 mm 0 mps 757 mmHg 98%
04:00 +23°C° 0.1 mm 0 mps 757 mmHg 98%
05:00 +23°C° 0.1 mm 0 mps 757 mmHg 98%
06:00 +23°C° 0.1 mm 0 mps 758 mmHg 97%
07:00 +23°C° 0.1 mm 0 mps 758 mmHg 97%
08:00 +25°C° 0.2 mm 0 mps 758 mmHg 90%
09:00 +27°C° 0.2 mm 0 mps 759 mmHg 83%
10:00 +29°C° 0.2 mm 0 mps 759 mmHg 76%
11:00 +31°C° 0.6 mm 1 mps 759 mmHg 78%
12:00 +31°C° 0.6 mm 2 mps 758 mmHg 80%
13:00 +31°C° 0.6 mm 2 mps 758 mmHg 81%
14:00 +30°C° 0.3 mm 2 mps 757 mmHg 80%
15:00 +30°C° 0.3 mm 3 mps 757 mmHg 79%
16:00 +30°C° 0.3 mm 3 mps 756 mmHg 78%
17:00 +29°C° 0.2 mm 3 mps 757 mmHg 83%
18:00 +28°C° 0.2 mm 2 mps 757 mmHg 88%
19:00 +27°C° 0.2 mm 2 mps 758 mmHg 93%
20:00 +26°C° 0.4 mm 2 mps 758 mmHg 94%
21:00 +26°C° 0.4 mm 2 mps 758 mmHg 95%
22:00 +26°C° 0.4 mm 1 mps 759 mmHg 96%
23:00 +25°C° 0.5 mm 1 mps 759 mmHg 96%

7 July, Tuesday

Time Temperature Precipitation Wind Pressure Humidity
00:00 +25°C° 0.5 mm 1 mps 759 mmHg 97%
01:00 +25°C° 0.5 mm 1 mps 758 mmHg 97%
02:00 +25°C° 0.7 mm 1 mps 758 mmHg 97%
03:00 +25°C° 0.7 mm 1 mps 758 mmHg 97%
04:00 +25°C° 0.7 mm 1 mps 758 mmHg 98%
05:00 +25°C° 0.7 mm 1 mps 758 mmHg 97%
06:00 +25°C° 0.7 mm 1 mps 758 mmHg 97%
07:00 +25°C° 0.7 mm 1 mps 758 mmHg 97%
08:00 +26°C° 0.4 mm 1 mps 759 mmHg 93%
09:00 +27°C° 0.4 mm 1 mps 759 mmHg 89%
10:00 +28°C° 0.4 mm 1 mps 759 mmHg 85%
11:00 +29°C° 0.1 mm 1 mps 758 mmHg 83%
12:00 +29°C° 0.1 mm 1 mps 758 mmHg 81%
13:00 +29°C° 0.1 mm 1 mps 758 mmHg 79%
14:00 +29°C° 0.1 mm 1 mps 757 mmHg 79%
15:00 +29°C° 0.1 mm 2 mps 756 mmHg 79%
16:00 +29°C° 0.1 mm 2 mps 756 mmHg 79%
17:00 +29°C° 0.1 mm 2 mps 756 mmHg 83%
18:00 +28°C° 0.1 mm 2 mps 757 mmHg 87%
19:00 +27°C° 0.1 mm 1 mps 757 mmHg 91%
20:00 +26°C° 0.2 mm 1 mps 758 mmHg 92%
21:00 +26°C° 0.2 mm 1 mps 758 mmHg 93%
22:00 +26°C° 0.2 mm 1 mps 758 mmHg 94%
23:00 +26°C° 1 mm 1 mps 758 mmHg 95%

8 July, Wednesday

Time Temperature Precipitation Wind Pressure Humidity
00:00 +26°C° 1 mm 1 mps 758 mmHg 96%
01:00 +25°C° 1 mm 1 mps 757 mmHg 98%
02:00 +25°C° 1.5 mm 1 mps 757 mmHg 98%
03:00 +25°C° 1.5 mm 1 mps 757 mmHg 98%
04:00 +25°C° 1.5 mm 1 mps 757 mmHg 99%
05:00 +25°C° 0.7 mm 1 mps 757 mmHg 98%
06:00 +25°C° 0.7 mm 1 mps 757 mmHg 98%
07:00 +26°C° 0.7 mm 1 mps 757 mmHg 98%
08:00 +25°C° 0.4 mm 0 mps 758 mmHg 93%
09:00 +26°C° 0.4 mm 0 mps 758 mmHg 89%
10:00 +27°C° 0.4 mm 0 mps 758 mmHg 84%
11:00 +30°C° 0.5 mm 1 mps 758 mmHg 82%
12:00 +30°C° 0.5 mm 2 mps 757 mmHg 79%
13:00 +31°C° 0.5 mm 3 mps 757 mmHg 76%
14:00 +30°C° 0.6 mm 3 mps 756 mmHg 81%
15:00 +29°C° 0.6 mm 2 mps 756 mmHg 86%
16:00 +28°C° 0.6 mm 2 mps 755 mmHg 92%
17:00 +27°C° 0.7 mm 2 mps 756 mmHg 93%
18:00 +27°C° 0.7 mm 2 mps 756 mmHg 95%
19:00 +26°C° 0.7 mm 1 mps 756 mmHg 97%
20:00 +26°C° 0.4 mm 1 mps 757 mmHg 97%
21:00 +26°C° 0.4 mm 1 mps 757 mmHg 97%
22:00 +24°C° 0.4 mm 0 mps 758 mmHg 96%
23:00 +24°C° 0.3 mm 0 mps 758 mmHg 96%

9 July, Thursday

Time Temperature Precipitation Wind Pressure Humidity
00:00 +23°C° 0.3 mm 0 mps 757 mmHg 96%
01:00 +23°C° 0.3 mm 0 mps 757 mmHg 96%
02:00 +23°C° 0 mm 0 mps 757 mmHg 97%
03:00 +25°C° 0 mm 1 mps 757 mmHg 97%
04:00 +25°C° 0 mm 1 mps 756 mmHg 97%
05:00 +25°C° 0 mm 1 mps 757 mmHg 97%
06:00 +25°C° 0 mm 1 mps 757 mmHg 96%
07:00 +26°C° 0 mm 1 mps 757 mmHg 96%
08:00 +26°C° 0 mm 0 mps 757 mmHg 86%
09:00 +28°C° 0 mm 0 mps 757 mmHg 77%
10:00 +31°C° 0 mm 0 mps 758 mmHg 67%
11:00 +33°C° 0 mm 1 mps 757 mmHg 66%
12:00 +34°C° 0 mm 2 mps 757 mmHg 64%
13:00 +34°C° 0 mm 3 mps 756 mmHg 63%
14:00 +33°C° 0 mm 3 mps 756 mmHg 66%
15:00 +33°C° 0 mm 3 mps 755 mmHg 69%
16:00 +32°C° 0 mm 4 mps 755 mmHg 72%
17:00 +30°C° 0.1 mm 3 mps 755 mmHg 78%
18:00 +29°C° 0.1 mm 2 mps 755 mmHg 84%
19:00 +27°C° 0.1 mm 2 mps 756 mmHg 90%
20:00 +27°C° 0.2 mm 1 mps 756 mmHg 91%
21:00 +27°C° 0.2 mm 1 mps 757 mmHg 92%
22:00 +27°C° 0.2 mm 1 mps 757 mmHg 93%
23:00 +26°C° 0.6 mm 1 mps 757 mmHg 93%
Show more